Regional Weather Roundup
Issued by NWS

Home | Current Version | Previous Version | Graphics & Text | Print | Product List | Glossary On
Versions: 1 2 3 4 5 6 7 8 9 10 11 12 13 14 15 16 17 18 19 20 21 22 23 24 25 26 27
000
ASUS45 KBOU 160107
RWRCO

WEATHER ROUNDUP FOR COLORADO
NATIONAL WEATHER SERVICE DENVER/BOULDER CO
600 PM MST SUN JAN 15 2017

NOTE: "FAIR" INDICATES FEW OR NO CLOUDS BELOW 12000 FEET WITH NO
SIGNIFICANT WEATHER AND/OR OBSTRUCTIONS TO VISIBILITY.

COZ001>005-013-030-031-160200-
...NORTHWEST COLORADO...

CITY           SKY/WX    TMP DP  RH WIND       PRES   REMARKS
CRAIG          CLOUDY    20  14  77 NE6       30.01S WCI  12
HAYDEN         CLOUDY    21  18  86 CALM      30.00R
MEEKER         CLOUDY    27  23  85 CALM      29.98S
MOUNT WERNER   NOT AVBL
STEAMBOAT SPGS CLOUDY    22  21  95 SW3       29.98S
WALDEN           N/A    N/A N/A N/A CALM      29.97S VSB 1/2
$$

COZ006>008-011-160200-
...WEST CENTRAL VALLEYS...

CITY           SKY/WX    TMP DP  RH WIND       PRES   REMARKS
GRAND JUNCTION CLOUDY    40  34  79 NE5       29.93R
MONTROSE       CLOUDY    37  34  89 N3        29.94S
EAGLE          MOCLDY    30  25  80 CALM      29.94R
RIFLE          MOCLDY    33  27  78 NW7       29.95R WCI  27
DELTA          CLOUDY    41  36  81 CALM      29.94R
NUCLA          CLOUDY    37  34  87 NW5       29.95S
$$

COZ017>023-064>068-160200-
...SOUTHWEST COLORADO...

CITY           SKY/WX    TMP DP  RH WIND       PRES   REMARKS
DURANGO        CLOUDY    40  34  79 SW6       29.82S
CORTEZ         CLOUDY    38  38 100 NW9       29.89R FOG
PAGOSA SPRINGS CLOUDY    35  35  99 CALM      29.85S
TELLURIDE      CLOUDY    31  31  99 W7        29.93R WCI  24
WOLF CREEK PAS CLOUDY    23  23 100 CALM      29.96R
$$

COZ009-010-012-014-032>034-037-058>063-160200-
...CENTRAL COLORADO...

CITY           SKY/WX    TMP DP  RH WIND       PRES   REMARKS
ASPEN          CLOUDY    31  26  82 CALM      29.90R
BUENA VISTA    FLURRIES  31  28  88 CALM      29.91S
COPPER MTN     FLURRIES  30  23  74 CALM      29.96S
BERTHOUD PASS  NOT AVBL
COTTONWOOD PAS NOT AVBL
GUNNISON       FLURRIES  22  18  85 NE3       29.91S
KREMMLING      CLOUDY    27  23  86 CALM      29.96S
LEADVILLE      CLOUDY    27  23  85 S5        29.90S WCI  22
MONARCH PASS   CLOUDY    23  21  93 E15       30.02S WCI  10
SALIDA         CLOUDY    34  31  91 SE3       29.98S
SUNLIGHT       MOCLDY    23  21  93 N5        29.98S FOG     WCI  17
WILKERSON PASS LGT SNOW  23  21  93 NE12G17   29.96S WCI  12
$$

COZ069>075-160200-
...SAN LUIS VALLEY/SANGRE DE CRISTO MOUNTAINS...

CITY           SKY/WX    TMP DP  RH WIND       PRES   REMARKS
ALAMOSA        CLOUDY    32  32 100 S3        29.84S
LA VETA PASS   FOG       23  21  93 SW5       29.90R VSB 3/4 WCI  17
SAGUACHE       CLOUDY    32  32 100 NE3       29.86S
$$

COZ035-036-038>040-160200-
...NORTHERN COLORADO FRONT RANGE...

CITY           SKY/WX    TMP DP  RH WIND       PRES   REMARKS
DENVER INTL AP LGT SNOW  32  26  78 NW5       29.95S WCI  27
DMNS CITY PARK   N/A     33  31  93 W2        29.97S
AURORA         LGT SNOW  31  30  96 NW5       29.96S FOG     WCI  26
FRONT RANGE AP CLOUDY    34  28  80 NW5       29.96S WCI  30
ERIE MUNI ARPT CLOUDY    33  28  82 CALM      29.97S
BOULDER MUN AP LGT SNOW  32  30  93 CALM      29.97R
CENTENNIAL     LGT SNOW  31  29  92 NW6       29.95S FOG     WCI  25
BROOMFIELD     LGT SNOW  32  28  86 CALM      29.97R
FORT COLLINS   CLOUDY    34  27  75 CALM      29.98S
LONGMONT       CLOUDY    36  29  76 W3        29.99S
$$

COZ041-046-047-076>085-087-088-160200-
...PIKES PEAK/PALMER DIVIDE AND SOUTHERN FOOTHILLS...

CITY           SKY/WX    TMP DP  RH WIND       PRES   REMARKS
COLO. SPRINGS  SNOW      31  30  96 S3        29.93S VSB 1/4
A. F. ACADEMY  CLOUDY    33  29  83 N14       29.91S WCI  23
SCHRIEVER AFB  NOT AVBL
ELLICOTT       CLOUDY   N/A N/A N/A N6        29.92R
FALCON         CLOUDY    32  28  84 N6        29.93R WCI  26
FORT CARSON    LGT RAIN  32  32 100 VRB3      29.94S FOG
LIMON          CLOUDY    30  27  88 N9        29.94S WCI  22
MONUMENT HILL  CLOUDY    28  27  93 NW10      29.95R FOG     WCI  19
TRINIDAD       CLOUDY    30  28  92 CALM      29.93R FOG
$$

COZ042>045-048>051-090-091-160200-
...NORTHEAST COLORADO...

CITY           SKY/WX    TMP DP  RH WIND       PRES   REMARKS
GREELEY ARPT   CLOUDY    34  27  75 CALM      29.98S
AKRON          CLOUDY    29  26  89 NE3       29.95F
BURLINGTON     CLOUDY    32  29  88 NE5       29.97S WCI  27
WRAY           NOT AVBL
STERLING       LGT SNOW  30  30 100 NE3       29.97S
HOLYOKE        CLOUDY    34  32  93 NE3       30.00F FOG
FORT MORGAN    CLOUDY    30  27  89 CALM      29.98S
$$

COZ086-089-092>099-160200-
...SOUTHEAST COLORADO...

CITY           SKY/WX    TMP DP  RH WIND       PRES   REMARKS
PUEBLO         CLOUDY    34  32  92 CALM      29.95S FOG
LA JUNTA       CLOUDY    33  31  92 CALM      29.95F FOG
LAMAR          CLOUDY    32  30  92 E3        29.96S FOG
SPRINGFIELD      N/A     30  29  96 N14       29.91F WCI  19
$$




USA.gov is the U.S. government's official web portal to all federal, state and local government web resources and services.